Location: Sobotiste
(48.7170°N, 17.4000°E)
Time: 16:14:18
(UTC+02:00)

N. Korean satellite - Visible Passes

Search period start: 26 September 2018 00:00
Search period end: 06 October 2018 00:00
Orbit: 458 x 511 km, 97.2° (Epoch: 24 September)

Date Brightness Start Highest point End Pass type
(mag) Time Alt. Az. Time Alt. Az. Time Alt. Az.
26 Sep 10.8 06:02:30 10° ENE 06:03:25 11° E 06:04:21 10° ESE visible
27 Sep 9.9 19:23:31 10° SW 19:25:54 17° W 19:28:18 10° NW visible
30 Sep 10.7 19:46:14 10° W 19:46:29 10° W 19:46:45 10° W visible
01 Oct 9.8 19:19:16 10° SW 19:21:52 19° W 19:24:30 10° NW visible
02 Oct 8.7 18:54:01 10° SSW 18:57:19 34° W 19:00:42 10° NNW visible
03 Oct 10.2 06:17:35 10° NE 06:20:00 16° E 06:22:25 10° SE visible
04 Oct 10.4 19:41:11 10° WSW 19:42:25 11° W 19:43:38 10° WNW visible
05 Oct 9.7 19:15:01 10° SW 19:17:47 20° W 19:20:37 10° NW visible
